Flag for Switzerland Weather past 2 weeks in Bern, Bern, Switzerland

Now
57 °F

Fog.


Feels Like: 57 °F
Forecast: 54 / 69 °F
Wind: 2 mph from North

Location: Bern / Belp

Current Time: Sep 20, 2014 at 6:10:21 AM

Latest Report: Sep 20, 2014 at 5:50 AM


Visibility: 3 mi

Pressure: 30.04 "Hg

Humidity: 100%

Dew point: 57 °F

Location of BernLocation

Historic Weather in Bern — Graph

°F

Bern temperature yesterday

Maximum temperature yesterday: 72 °F (at 3:50 PM)
Minimum temperature yesterday: 55 °F (at 2:20 AM)
Average temperature yesterday: 62 °F

Past Weeks' High & Low Weather Summary

 TemperatureHumidityPressure
High81 °F (Sep 8, 2:50 PM)100% (Sep 5, 4:20 AM)30.12 "Hg (Sep 5, 4:20 AM)
Low43 °F (Sep 14, 6:20 AM)44% (Sep 7, 5:50 PM)29.86 "Hg (Sep 17, 2:50 PM)
Average61 °F83%30.00 "Hg
* Reported Sep 5 4:20 AM — Sep 20 4:50 AM, Bern, Weather by CustomWeather, © 2014

Note: Actual official high and low records may vary slightly from our data, if they occured in-between our weather recording intervals... More about our weather records

Advertising

Bern weather history for previous 24 hours

 ConditionsComfort  
Time TempWeatherWind HumidityBarometerVisibility
4:50 AM
Sep 20
59 °FPartly cloudy.1 mph100%30.01 "Hg4 mi
4:20 AM59 °FPartly cloudy.3 mph100%30.04 "Hg4 mi
3:50 AM57 °FFog.2 mph100%30.04 "Hg1 mi
3:20 AM59 °FPassing clouds.2 mph100%30.04 "Hg5 mi
2:50 AM61 °FPassing clouds.5 mph94%30.01 "HgN/A
2:20 AM61 °FLight rain. Passing clouds.2 mph94%30.07 "HgN/A
1:50 AM61 °FPassing clouds.3 mph94%30.04 "HgN/A
1:20 AM59 °FPartly cloudy.3 mph100%30.04 "Hg6 mi
12:50 AM61 °FMostly cloudy.3 mph94%30.04 "Hg5 mi
12:20 AM61 °FPassing clouds.5 mph94%30.04 "Hg6 mi
11:50 PM
Sep 19
61 °FSprinkles. Passing clouds.1 mph100%30.04 "Hg4 mi
11:20 PM61 °FPassing clouds.3 mph100%30.04 "HgN/A
10:50 PM61 °FSprinkles. Partly cloudy.3 mph100%30.04 "Hg4 mi
10:20 PM61 °FPassing clouds.3 mph94%30.04 "HgN/A
9:50 PM63 °FPassing clouds.6 mph94%30.04 "HgN/A
9:20 PM63 °FLight rain. Passing clouds.3 mph94%30.04 "HgN/A
8:50 PM64 °FSprinkles. Passing clouds.2 mph83%30.01 "HgN/A
8:20 PM63 °FBroken clouds.5 mph94%30.01 "HgN/A
7:50 PM63 °FBroken clouds.1 mph94%30.01 "HgN/A
7:20 PM64 °FScattered clouds.1 mph88%29.98 "HgN/A
6:50 PM68 °FScattered clouds.3 mph78%29.98 "HgN/A
6:20 PM70 °FScattered clouds.2 mph69%29.98 "HgN/A
5:50 PM70 °FScattered clouds.5 mph69%29.98 "HgN/A
5:20 PM72 °FScattered clouds.2 mph65%29.98 "HgN/A
4:50 PM70 °FScattered clouds.3 mph69%29.98 "HgN/A
4:20 PM72 °FScattered clouds.3 mph65%29.98 "HgN/A
3:50 PM72 °FScattered clouds.3 mph65%30.01 "HgN/A
3:20 PM70 °FPartly sunny.8 mph64%30.01 "HgN/A
2:50 PM70 °FBroken clouds.7 mph69%29.98 "HgN/A
2:20 PM68 °FBroken clouds.6 mph78%30.01 "HgN/A
1:50 PM68 °FMostly cloudy.8 mph73%30.01 "HgN/A
1:20 PM68 °FBroken clouds.5 mph78%30.01 "HgN/A
12:50 PM68 °FBroken clouds.3 mph73%30.01 "HgN/A
12:20 PM68 °FPartly sunny.3 mph78%30.01 "HgN/A
11:50 AM68 °FPartly sunny.No wind73%30.01 "HgN/A
11:20 AM68 °FPartly sunny.No wind69%30.01 "HgN/A
10:50 AM68 °FScattered clouds.6 mph73%30.01 "HgN/A
10:20 AM64 °FPartly sunny.5 mph78%30.01 "HgN/A
9:50 AM63 °FBroken clouds.5 mph88%29.98 "HgN/A
9:20 AM59 °FScattered clouds.5 mph94%29.98 "HgN/A
8:50 AM57 °FBroken clouds.5 mph100%29.98 "HgN/A
8:20 AM55 °FPartly sunny.5 mph100%29.98 "HgN/A
7:50 AM55 °FPassing clouds.2 mph94%29.98 "HgN/A
7:20 AM55 °FPassing clouds.2 mph100%29.98 "HgN/A
6:50 AM55 °FOvercast.No wind94%29.98 "HgN/A
6:20 AM55 °FClear.5 mph94%29.98 "Hg10 mi
Weather by CustomWeather, © 2014

See weather overviewHow to use our weather pages